Weather reports worldwide

Advertisment
Gourette, France (7775): temperature & dewpoint: 05.12.2019 09:00:00 - 11.12.2019 09:00:00 (CET)Gourette, France (7775): wind speed & gusts: 05.12.2019 09:00:00 - 11.12.2019 09:00:00 (CET)Gourette, France (7775): wind direction: 05.12.2019 09:00:00 - 11.12.2019 09:00:00 (CET)Gourette, France (7775): reduced air pressure: 05.12.2019 09:00:00 - 11.12.2019 09:00:00 (CET)Gourette, France (7775): visibility: 05.12.2019 09:00:00 - 11.12.2019 09:00:00 (CET)Gourette, France (7775): precipitation: 05.12.2019 09:00:00 - 11.12.2019 09:00:00 (CET)
Date & Time tt [°C] td [°C] ff [km/h] ff [kn] fx [km/h] fx [kn] dd ppp [hPa] vv [km] rr [mm]
11.12.2019 09:00:00 - - - - - - - - - -
11.12.2019 08:00:00 9,6 1,2 15 8 26 14 NW 1017,3 - 0,0
11.12.2019 07:00:00 9,0 0,9 16 9 29 16 NW 1017,5 - 0,0
11.12.2019 06:00:00 9,5 0,6 18 10 32 17 NW 1017,7 - 0,0
11.12.2019 05:00:00 9,9 1,3 25 13 45 24 NNW 1018,0 - 0,0
11.12.2019 04:00:00 10,8 1,6 23 13 41 22 NNW 1018,5 30 0,0
11.12.2019 03:00:00 10,9 1,9 26 14 39 21 NNW 1018,8 - 0,0
11.12.2019 02:00:00 10,6 2,7 24 13 42 23 N 1018,9 - 0,0
11.12.2019 01:00:00 11,3 2,8 22 12 41 22 N 1019,3 - 0,0
11.12.2019 00:00:00 11,4 2,7 23 12 36 19 NNW 1019,5 - 0,0
10.12.2019 23:00:00 11,4 2,4 26 14 43 23 N 1019,1 - 0,0
10.12.2019 22:00:00 12,1 2,5 25 13 42 23 NNW 1019,0 - 0,0
10.12.2019 21:00:00 11,4 2,9 21 11 35 19 NNW 1018,8 - 0,0
10.12.2019 20:00:00 11,3 3,6 19 10 32 18 N 1018,4 - 0,0
10.12.2019 19:00:00 11,7 3,7 21 12 36 20 NNW 1017,8 25 0,0
10.12.2019 18:00:00 11,8 4,3 19 10 33 18 NNW 1017,0 - 0,0
10.12.2019 17:00:00 12,4 5,1 23 12 37 20 NNW 1016,5 - 0,0
10.12.2019 16:00:00 14,2 5,5 21 11 47 26 N 1016,0 25 0,0
10.12.2019 15:00:00 15,8 5,4 31 17 54 29 N 1015,5 - 0,0
10.12.2019 14:00:00 16,5 5,4 27 15 50 27 N 1015,3 - 0,0
10.12.2019 13:00:00 17,2 7,5 30 16 50 27 N 1015,1 - 0,0
10.12.2019 12:00:00 16,9 8,6 31 17 58 31 N 1015,0 - 0,0
10.12.2019 11:00:00 16,4 5,6 30 16 62 33 N 1014,6 - 0,0
10.12.2019 10:00:00 15,1 4,5 35 19 56 30 N 1013,7 - 0,0
10.12.2019 09:00:00 14,2 4,5 37 20 60 33 N 1012,7 - 0,0
10.12.2019 08:00:00 13,5 3,6 31 17 55 30 NNW 1011,4 - 0,0
10.12.2019 07:00:00 12,9 2,4 27 15 53 29 NNW 1010,7 20 0,0
10.12.2019 06:00:00 12,0 2,2 24 13 41 22 N 1009,8 - 0,0
10.12.2019 05:00:00 11,8 1,4 21 11 31 17 NNW 1009,3 - 0,0
10.12.2019 04:00:00 11,6 -0,6 13 7 16 9 NNW 1008,8 - 0,0
10.12.2019 03:00:00 12,5 2,1 5 3 14 7 WSW 1008,5 - 0,0
10.12.2019 02:00:00 11,5 1,7 9 5 14 8 WSW 1008,0 - 0,0
10.12.2019 01:00:00 13,0 -0,3 10 5 16 8 NW 1007,7 - 0,0
10.12.2019 00:00:00 12,9 1,8 13 7 22 12 NW 1007,6 - 0,0
09.12.2019 23:00:00 12,0 1,9 18 10 23 13 NW 1007,7 - 0,0
09.12.2019 22:00:00 10,8 3,3 11 6 33 18 WSW 1007,6 - 0,0
09.12.2019 21:00:00 12,2 3,7 24 13 38 20 W 1007,8 - 0,0
09.12.2019 20:00:00 12,3 3,0 17 9 32 17 W 1008,3 - 0,0
09.12.2019 19:00:00 13,9 1,8 14 8 27 15 NW 1008,0 20 0,0
09.12.2019 18:00:00 12,1 1,7 14 7 34 19 W 1007,9 - 0,0
09.12.2019 17:00:00 13,7 2,9 11 6 59 32 S 1007,4 - 0,0
09.12.2019 16:00:00 16,8 0,4 37 20 76 41 W 1007,0 30 0,0
09.12.2019 15:00:00 18,1 2,0 27 15 53 29 WSW 1006,9 - 0,0
09.12.2019 14:00:00 19,4 3,5 20 11 56 30 SW 1007,2 - 0,0
09.12.2019 13:00:00 18,4 1,4 24 13 53 29 W 1008,1 - 0,0
09.12.2019 12:00:00 18,0 2,7 30 16 52 28 WSW 1009,4 - 0,0
09.12.2019 11:00:00 16,6 10,0 8 4 27 15 N 1010,6 - 0,0
09.12.2019 10:00:00 12,4 8,5 5 3 16 9 N 1010,7 - 0,0
09.12.2019 09:00:00 12,1 8,0 13 7 17 9 NNW 1011,2 - 0,0
09.12.2019 08:00:00 11,4 9,5 16 8 24 13 SW 1011,0 - 0,0
09.12.2019 07:00:00 11,0 9,4 17 9 27 15 SW 1011,7 - 0,0
09.12.2019 06:00:00 10,4 8,5 18 10 26 14 SW 1011,9 - 0,0
09.12.2019 05:00:00 10,8 7,3 18 10 22 12 SW 1012,8 - 0,0
09.12.2019 04:00:00 11,1 8,0 7 4 10 5 SW 1013,8 - 0,0
09.12.2019 03:00:00 13,0 8,3 8 4 12 7 WNW 1015,1 - 0,0
09.12.2019 02:00:00 10,7 8,5 5 3 8 5 NNW 1015,2 - 0,0
09.12.2019 01:00:00 13,7 8,7 4 2 11 6 NW 1015,7 - 0,0
09.12.2019 00:00:00 13,7 9,1 4 2 7 4 NW 1016,5 - 0,0
08.12.2019 23:00:00 13,2 9,6 6 3 10 5 WSW 1016,8 - 0,0
08.12.2019 22:00:00 13,0 10,0 10 5 13 7 WSW 1017,4 - 0,0
08.12.2019 21:00:00 13,1 10,6 8 4 10 6 WSW 1017,6 - 0,0
08.12.2019 20:00:00 11,9 10,0 4 2 7 4 WSW 1017,9 - 0,0
08.12.2019 19:00:00 12,5 10,7 4 2 11 6 W 1018,1 15 0,0
08.12.2019 18:00:00 13,9 11,6 4 2 10 5 NNW 1018,2 - 0,0
08.12.2019 17:00:00 14,4 12,1 6 4 13 7 N 1018,3 - 0,0
08.12.2019 16:00:00 16,7 12,4 10 5 16 9 NNE 1018,6 30 0,0
08.12.2019 15:00:00 17,7 12,6 12 6 18 10 NNE 1018,8 - 0,0
08.12.2019 14:00:00 17,8 11,8 11 6 14 8 NE 1018,6 - 0,0
08.12.2019 13:00:00 17,1 12,0 10 6 16 8 NE 1019,1 - 0,0
08.12.2019 12:00:00 17,8 12,3 6 4 13 7 ENE 1019,8 - 0,0
08.12.2019 11:00:00 16,6 11,7 8 4 13 7 E 1020,7 - 0,0
08.12.2019 10:00:00 16,5 11,6 3 2 9 5 WNW 1020,7 - 0,0
08.12.2019 09:00:00 13,9 10,1 6 3 8 5 W 1020,5 - 0,0
08.12.2019 08:00:00 14,2 9,4 6 3 14 8 NW 1020,4 - 0,0
08.12.2019 07:00:00 13,6 9,0 13 7 16 9 NW 1020,0 - 0,0
08.12.2019 06:00:00 13,8 9,8 11 6 17 9 NW 1019,6 - 0,0
08.12.2019 05:00:00 13,6 9,6 16 9 19 10 NW 1019,6 - 0,0
08.12.2019 04:00:00 13,1 10,1 14 8 21 11 NW 1019,7 - 0,0
08.12.2019 03:00:00 13,7 10,1 9 5 14 8 NNW 1020,1 - 0,0
08.12.2019 02:00:00 14,2 10,4 7 4 12 6 NW 1020,1 - 0,0
08.12.2019 01:00:00 14,2 10,4 9 5 15 8 NW 1020,3 - 0,0
08.12.2019 00:00:00 14,7 9,9 10 5 12 7 NW 1020,5 - 0,0
07.12.2019 23:00:00 14,7 9,5 9 5 13 7 NW 1020,6 - 0,0
07.12.2019 22:00:00 14,7 10,3 6 4 10 5 NW 1020,4 - 0,0
07.12.2019 21:00:00 14,4 10,0 6 4 17 9 NW 1020,1 - 0,0
07.12.2019 20:00:00 13,2 10,0 16 9 19 10 NW 1020,2 - 0,0
07.12.2019 19:00:00 12,7 11,1 15 8 18 10 NNW 1020,0 - 0,0
07.12.2019 18:00:00 14,0 12,2 2 1 4 2 N 1019,5 - 0,0
07.12.2019 17:00:00 14,4 12,3 2 1 11 6 ESE 1019,2 - 0,0
07.12.2019 16:00:00 15,8 12,5 9 5 12 7 S 1018,8 - 0,0
07.12.2019 15:00:00 17,0 13,1 5 3 13 7 ESE 1018,8 - 0,0
07.12.2019 14:00:00 16,7 12,2 6 3 14 8 ESE 1019,1 - 0,0
07.12.2019 13:00:00 16,8 12,1 9 5 15 8 E 1019,5 - 0,0
07.12.2019 12:00:00 17,8 12,0 6 3 11 6 E 1019,9 - 0,0
07.12.2019 11:00:00 16,8 11,9 6 3 10 6 N 1020,1 - 0,0
07.12.2019 10:00:00 15,9 11,7 4 2 14 8 NNW 1020,1 - 0,0
07.12.2019 09:00:00 13,6 9,8 12 7 16 9 NNW 1020,3 - 0,0
07.12.2019 08:00:00 13,4 9,8 8 4 10 5 NW 1020,1 - 0,0
07.12.2019 07:00:00 12,7 10,8 4 2 5 3 WSW 1019,8 - 0,0
07.12.2019 06:00:00 12,6 10,1 2 1 6 3 NE 1019,6 - 0,0
07.12.2019 05:00:00 13,2 9,4 3 1 8 4 SSW 1019,6 - 0,0
07.12.2019 04:00:00 13,6 9,2 0 0 7 4 N 1020,1 - 0,0
07.12.2019 03:00:00 13,2 9,6 6 3 9 5 WSW 1020,4 - 0,0
07.12.2019 02:00:00 13,0 9,6 7 4 13 7 SW 1020,0 - 0,0
07.12.2019 01:00:00 12,8 10,0 11 6 13 7 SW 1020,6 - 0,0
07.12.2019 00:00:00 12,6 9,8 8 5 9 5 SW 1021,1 - 0,0
06.12.2019 23:00:00 13,8 9,8 7 4 14 7 NW 1021,3 - 0,0
06.12.2019 22:00:00 12,5 10,2 11 6 14 8 NNW 1021,1 - 0,0
06.12.2019 21:00:00 12,0 9,9 13 7 20 11 NNW 1021,1 - 0,0
06.12.2019 20:00:00 11,9 10,5 16 9 21 11 NNW 1021,0 - 0,0
06.12.2019 19:00:00 12,3 11,2 16 9 21 11 N 1020,9 - 0,0
06.12.2019 18:00:00 12,8 12,2 9 5 15 8 NNW 1020,6 - 0,0
06.12.2019 17:00:00 13,7 12,6 8 4 11 6 N 1020,5 - 0,0
06.12.2019 16:00:00 14,9 13,1 7 4 11 6 ENE 1020,6 15 0,0
06.12.2019 15:00:00 16,4 12,9 4 2 11 6 ENE 1020,6 - 0,0
06.12.2019 14:00:00 15,4 12,9 8 5 14 8 SE 1021,0 - 0,0
06.12.2019 13:00:00 16,9 12,8 10 6 18 10 SSE 1021,5 20 0,0
06.12.2019 12:00:00 16,4 12,7 11 6 19 10 SSE 1022,2 - 0,0
06.12.2019 11:00:00 16,9 13,0 15 8 23 13 SSW 1022,9 - 0,0
06.12.2019 10:00:00 15,8 12,7 8 5 14 7 SSW 1022,9 - 0,2
06.12.2019 09:00:00 12,7 11,3 7 4 11 6 SW 1022,6 - 0,0
06.12.2019 08:00:00 12,2 10,9 6 3 6 4 SW 1022,6 - 0,0
06.12.2019 07:00:00 12,3 11,0 0 0 11 6 N 1022,5 - 0,0
06.12.2019 06:00:00 12,4 11,3 11 6 16 9 NNW 1022,3 - 0,0
06.12.2019 05:00:00 12,2 10,9 5 3 8 5 NE 1022,0 - 0,0
06.12.2019 04:00:00 12,7 11,1 0 0 5 3 N 1022,0 14 0,0
06.12.2019 03:00:00 12,8 11,4 0 0 10 6 N 1022,2 - 0,0
06.12.2019 02:00:00 11,8 11,5 10 5 14 8 SW 1022,5 - 0,0
06.12.2019 01:00:00 11,6 11,1 12 7 19 10 N 1022,6 - 0,0
06.12.2019 00:00:00 11,6 10,8 16 9 21 12 N 1023,0 - 0,0
05.12.2019 23:00:00 12,3 11,8 17 9 23 13 N 1023,0 - 0,4
05.12.2019 22:00:00 12,4 12,1 16 9 23 12 N 1022,8 - 0,0
05.12.2019 21:00:00 12,3 11,7 16 9 19 10 N 1022,6 - 0,0
05.12.2019 20:00:00 12,5 11,9 15 8 19 10 NNW 1022,7 - 1,2
05.12.2019 19:00:00 12,6 12,0 16 8 23 12 NNW 1022,3 - 0,6
05.12.2019 18:00:00 12,3 11,7 17 9 22 12 NNW 1021,9 - 0,0
05.12.2019 17:00:00 12,3 11,7 18 10 23 12 NNW 1021,7 - 0,4
05.12.2019 16:00:00 12,2 11,7 15 8 22 12 N 1021,5 - 1,0
05.12.2019 15:00:00 12,1 11,0 18 10 27 14 NNW 1021,3 - 0,4
05.12.2019 14:00:00 12,0 10,9 15 8 23 12 NNW 1021,3 - 0,4
05.12.2019 13:00:00 12,2 10,6 16 9 23 12 NW 1021,5 - 0,2
05.12.2019 12:00:00 12,5 10,9 10 5 17 9 NNW 1021,7 - 0,2
05.12.2019 11:00:00 12,5 10,7 6 3 16 9 NW 1021,8 - 1,2
05.12.2019 10:00:00 12,9 10,3 13 7 16 9 NW 1021,3 - 0,0
05.12.2019 09:00:00 12,2 9,4 11 6 14 8 NNW 1020,6 - 0,2

tt = temperature
td = dewpoint
ff = wind speed
fx = gusts
dd = wind direction
ppp = reduced air pressure
vv = visibility
rr = precipitation

Next stations